Home   Weather   Fort Worth   Past weeks

Flag for USA Past Weather in Fort Worth, Texas, USA — Yesterday and Last 2 Weeks

Now
60 °F

Sunny.


Feels Like: 60 °F
Forecast: 57 / 87 °F
Wind: 3 mph from West

Location: Meacham International Airport

Current Time: Sep 28, 2016 at 8:52:22 AM

Latest Report: Sep 28, 2016 at 7:53 AM


Visibility: 10 mi

Pressure: 30.02 "Hg

Humidity: 78%

Dew Point: 53 °F

Location of Fort WorthLocation

Past Weather in Fort Worth — Graph

°F

Fort Worth Temperature Yesterday

Maximum temperature yesterday: 77 °F (at 1:53 PM)
Minimum temperature yesterday: 61 °F (at 7:53 AM)
Average temperature yesterday: 69 °F

High & Low Weather Summary for the Past Weeks

 TemperatureHumidityPressure
High100 °F (Sep 19, 3:53 PM)91% (Sep 25, 8:53 AM)30.18 "Hg (Sep 25, 8:53 AM)
Low57 °F (Sep 28, 5:53 AM)27% (Sep 20, 4:53 PM)29.84 "Hg (Sep 24, 5:53 PM)
Average82 °F62%29.98 "Hg
* Reported Sep 13 6:53 AM — Sep 28 6:53 AM, Fort Worth, Weather by CustomWeather, © 2016

Note: Actual official high and low records may vary slightly from our data, if they occured in-between our weather recording intervals... More about our weather records

Advertising

Fort Worth Weather History for the Previous 24 Hours

Scroll right to see more
 ConditionsComfort  
Time TempWeatherWind HumidityBarometerVisibility
6:53 AM
Wed, Sep 28
59 °FClear.No wind72%30.02 "Hg10 mi
5:53 AM57 °FClear.3 mph81%30.01 "Hg10 mi
4:53 AM61 °FClear.No wind65%29.99 "Hg10 mi
3:53 AM60 °FClear.No wind72%29.99 "Hg10 mi
2:53 AM62 °FClear.No wind67%29.99 "Hg10 mi
1:53 AM61 °FClear.5 mph75%30.00 "Hg10 mi
12:53 AM63 °FClear.5 mph70%30.01 "Hg10 mi
11:53 PM
Tue, Sep 27
63 °FClear.3 mph68%30.01 "Hg10 mi
10:53 PM64 °FClear.6 mph70%30.02 "Hg9 mi
9:53 PM66 °FClear.3 mph63%30.03 "Hg9 mi
8:53 PM68 °FClear.No wind55%30.01 "Hg6 mi
7:53 PM70 °FClear.No wind49%30.01 "Hg10 mi
6:53 PM72 °FSunny.3 mph44%30.01 "Hg10 mi
5:53 PM75 °FSunny.3 mph40%30.01 "Hg10 mi
4:53 PM77 °FSunny.5 mph29%30.01 "Hg10 mi
3:53 PM77 °FSunny.5 mph31%30.02 "Hg10 mi
2:53 PM77 °FSunny.7 mph36%30.03 "Hg10 mi
1:53 PM77 °FSunny.No wind30%30.07 "Hg10 mi
12:53 PM75 °FSunny.5 mph32%30.09 "Hg10 mi
11:53 AM74 °FSunny.7 mph33%30.10 "Hg10 mi
10:53 AM72 °FSunny.7 mph44%30.12 "Hg10 mi
9:53 AM68 °FSunny.6 mph53%30.11 "Hg10 mi
8:53 AM67 °FSunny.8 mph53%30.11 "Hg10 mi
Weather by CustomWeather, © 2016

See weather overviewHow to use our weather pages